User: anonymous   Login
Location: Starry Hill Observatory
(46.8582°N, 122.3590°W)
Time: 01:42:56
(UTC-08:00)
Language:

Cosmos 1300 Rocket - Orbit

View from above orbital plane
View from above orbital plane
View from above satellite
View from above satellite

Ground track
Ground track

The orbit data is extracted from the following two-line orbital elements,

1 12786U 81082B   14353.80905481  .00000875  00000-0  10126-3 0   707
2 12786 082.4897 105.5720 0017867 024.4730 335.7330 14.84298554799743
Epoch (UTC): 19 December 2014 19:25:02
Eccentricity: 0.0017867
inclination: 82.4897°
perigee height: 603 km
apogee height: 628 km
right ascension of ascending node: 105.5720°
argument of perigee: 24.4730°
revolutions per day: 14.84298554
mean anomaly at epoch: 335.7330°
orbit number at epoch: 79974

The dashed part of the orbit path shows where the satellite is in the earth's shadow,  

DLR